• In Lithuania
  • List of Countries
  • For 7 days
  • Water Temperature
  • Satellite Maps
  • Weather Map
  • Weather Widgets
  • user-avatar
    Login

    Hourly Weather Mayrhofen

    Today, 25 September, Tuesday

    Time Temperature Precipitation Wind Pressure Humidity
    00:00 -3°C° 0 mm 2 mps 624 mmHg 88%
    01:00 -3°C° 0 mm 2 mps 624 mmHg 88%
    02:00 -3°C° 0 mm 2 mps 624 mmHg 87%
    03:00 -3°C° 0 mm 2 mps 625 mmHg 86%
    04:00 -3°C° 0 mm 2 mps 625 mmHg 85%
    05:00 -3°C° 0 mm 2 mps 625 mmHg 82%
    06:00 -3°C° 0 mm 2 mps 625 mmHg 79%
    07:00 -2°C° 0 mm 2 mps 626 mmHg 76%
    08:00 +1°C° 0 mm 2 mps 626 mmHg 65%
    09:00 +3°C° 0 mm 2 mps 627 mmHg 54%
    10:00 +6°C° 0 mm 2 mps 628 mmHg 43%
    11:00 +7°C° 0 mm 2 mps 628 mmHg 41%
    12:00 +8°C° 0 mm 2 mps 628 mmHg 39%
    13:00 +9°C° 0 mm 2 mps 629 mmHg 37%
    14:00 +9°C° 0 mm 2 mps 628 mmHg 39%
    15:00 +8°C° 0 mm 2 mps 628 mmHg 41%
    16:00 +8°C° 0 mm 2 mps 628 mmHg 44%
    17:00 +5°C° 0 mm 2 mps 627 mmHg 56%
    18:00 +3°C° 0 mm 2 mps 627 mmHg 68%
    19:00 +1°C° 0 mm 1 mps 626 mmHg 80%
    20:00 +1°C° 0 mm 1 mps 626 mmHg 78%
    21:00 +1°C° 0 mm 1 mps 626 mmHg 76%
    22:00 +1°C° 0 mm 1 mps 627 mmHg 74%
    23:00 +1°C° 0 mm 1 mps 627 mmHg 71%

    Tomorrow, 26 September, Wednesday

    Time Temperature Precipitation Wind Pressure Humidity
    00:00 +1°C° 0 mm 1 mps 627 mmHg 68%
    01:00 +1°C° 0 mm 1 mps 627 mmHg 65%
    02:00 +1°C° 0 mm 1 mps 627 mmHg 66%
    03:00 +1°C° 0 mm 1 mps 627 mmHg 67%
    04:00 -1°C° 0 mm 2 mps 627 mmHg 68%
    05:00 +2°C° 0 mm 1 mps 627 mmHg 66%
    06:00 +3°C° 0 mm 1 mps 627 mmHg 65%
    07:00 +3°C° 0 mm 1 mps 628 mmHg 63%
    08:00 +6°C° 0 mm 1 mps 629 mmHg 52%
    09:00 +10°C° 0 mm 1 mps 630 mmHg 41%
    10:00 +13°C° 0 mm 1 mps 631 mmHg 30%
    11:00 +14°C° 0 mm 1 mps 631 mmHg 28%
    12:00 +15°C° 0 mm 1 mps 631 mmHg 27%
    13:00 +16°C° 0 mm 1 mps 631 mmHg 25%
    14:00 +15°C° 0 mm 1 mps 631 mmHg 30%
    15:00 +15°C° 0 mm 1 mps 630 mmHg 34%
    16:00 +15°C° 0 mm 2 mps 630 mmHg 38%
    17:00 +11°C° 0 mm 1 mps 629 mmHg 50%
    18:00 +8°C° 0 mm 1 mps 628 mmHg 62%
    19:00 +5°C° 0 mm 1 mps 627 mmHg 74%
    20:00 +5°C° 0 mm 1 mps 627 mmHg 70%
    21:00 +5°C° 0 mm 1 mps 627 mmHg 66%
    22:00 +5°C° 0 mm 1 mps 627 mmHg 63%
    23:00 +5°C° 0 mm 1 mps 627 mmHg 60%

    Day after tomorrow, 27 September, Thursday

    Time Temperature Precipitation Wind Pressure Humidity
    00:00 +5°C° 0 mm 1 mps 627 mmHg 56%
    01:00 +5°C° 0 mm 1 mps 627 mmHg 53%
    02:00 +5°C° 0 mm 1 mps 627 mmHg 50%
    03:00 +5°C° 0 mm 1 mps 626 mmHg 47%
    04:00 +5°C° 0 mm 1 mps 626 mmHg 45%
    05:00 +5°C° 0 mm 1 mps 626 mmHg 45%
    06:00 +6°C° 0 mm 1 mps 626 mmHg 45%
    07:00 +6°C° 0 mm 1 mps 627 mmHg 45%
    08:00 +10°C° 0 mm 1 mps 628 mmHg 40%
    09:00 +13°C° 0 mm 1 mps 629 mmHg 34%
    10:00 +16°C° 0 mm 1 mps 630 mmHg 29%
    11:00 +18°C° 0 mm 1 mps 630 mmHg 28%
    12:00 +19°C° 0 mm 1 mps 630 mmHg 28%
    13:00 +20°C° 0 mm 1 mps 630 mmHg 28%
    14:00 +19°C° 0 mm 1 mps 629 mmHg 32%
    15:00 +18°C° 0 mm 1 mps 629 mmHg 36%
    16:00 +18°C° 0 mm 1 mps 628 mmHg 40%
    17:00 +14°C° 0 mm 1 mps 627 mmHg 52%
    18:00 +10°C° 0 mm 1 mps 625 mmHg 64%
    19:00 +6°C° 0 mm 0 mps 624 mmHg 76%
    20:00 +7°C° 0 mm 1 mps 624 mmHg 75%
    21:00 +6°C° 0 mm 1 mps 624 mmHg 74%
    22:00 +6°C° 0 mm 1 mps 624 mmHg 73%
    23:00 +6°C° 0 mm 1 mps 623 mmHg 72%

    28 September, Friday

    Time Temperature Precipitation Wind Pressure Humidity
    00:00 +6°C° 0 mm 1 mps 623 mmHg 72%
    01:00 +6°C° 0 mm 1 mps 622 mmHg 71%
    02:00 +6°C° 0 mm 1 mps 622 mmHg 70%
    03:00 +5°C° 0 mm 1 mps 622 mmHg 69%
    04:00 +5°C° 0 mm 1 mps 621 mmHg 68%
    05:00 +6°C° 0 mm 1 mps 621 mmHg 65%
    06:00 +6°C° 0 mm 1 mps 621 mmHg 63%
    07:00 +7°C° 0 mm 1 mps 622 mmHg 60%
    08:00 +10°C° 0 mm 1 mps 623 mmHg 52%
    09:00 +13°C° 0 mm 1 mps 624 mmHg 44%
    10:00 +16°C° 0 mm 2 mps 625 mmHg 37%
    11:00 +16°C° 0 mm 2 mps 625 mmHg 36%
    12:00 +17°C° 0 mm 2 mps 625 mmHg 36%
    13:00 +18°C° 0 mm 2 mps 624 mmHg 36%
    14:00 +17°C° 0 mm 2 mps 624 mmHg 40%
    15:00 +16°C° 0 mm 2 mps 623 mmHg 45%
    16:00 +16°C° 0 mm 2 mps 623 mmHg 50%
    17:00 +13°C° 0 mm 2 mps 622 mmHg 63%
    18:00 +10°C° 0 mm 1 mps 621 mmHg 76%
    19:00 +8°C° 0 mm 1 mps 620 mmHg 89%
    20:00 +8°C° 0 mm 1 mps 620 mmHg 91%
    21:00 +8°C° 0 mm 1 mps 621 mmHg 92%
    22:00 +8°C° 0 mm 1 mps 621 mmHg 94%
    23:00 +8°C° 0 mm 1 mps 621 mmHg 94%

    29 September, Saturday

    Time Temperature Precipitation Wind Pressure Humidity
    00:00 +8°C° 0 mm 1 mps 620 mmHg 94%
    01:00 +8°C° 0 mm 1 mps 620 mmHg 95%
    02:00 +7°C° 0 mm 1 mps 620 mmHg 95%
    03:00 +7°C° 0 mm 1 mps 620 mmHg 95%
    04:00 +7°C° 0 mm 1 mps 620 mmHg 95%
    05:00 +7°C° 0 mm 1 mps 620 mmHg 94%
    06:00 +7°C° 0 mm 1 mps 620 mmHg 94%
    07:00 +7°C° 0 mm 1 mps 620 mmHg 93%
    08:00 +8°C° 0 mm 1 mps 621 mmHg 88%
    09:00 +8°C° 0 mm 1 mps 621 mmHg 83%
    10:00 +9°C° 0 mm 1 mps 621 mmHg 77%
    11:00 +10°C° 0 mm 1 mps 621 mmHg 76%
    12:00 +10°C° 0 mm 1 mps 621 mmHg 75%
    13:00 +9°C° 0 mm 2 mps 621 mmHg 73%
    14:00 +9°C° 0.1 mm 2 mps 621 mmHg 74%
    15:00 +9°C° 0.1 mm 2 mps 621 mmHg 76%
    16:00 +9°C° 0.1 mm 2 mps 621 mmHg 77%
    17:00 +9°C° 0 mm 1 mps 621 mmHg 83%
    18:00 +7°C° 0 mm 1 mps 620 mmHg 89%
    19:00 +6°C° 0 mm 1 mps 620 mmHg 95%
    20:00 +6°C° 0 mm 1 mps 620 mmHg 95%
    21:00 +6°C° 0 mm 1 mps 620 mmHg 95%
    22:00 +6°C° 0 mm 1 mps 620 mmHg 96%
    23:00 +5°C° 0 mm 1 mps 620 mmHg 96%

    30 September, Sunday

    Time Temperature Precipitation Wind Pressure Humidity
    00:00 +5°C° 0 mm 1 mps 620 mmHg 96%
    01:00 +5°C° 0 mm 1 mps 619 mmHg 96%
    02:00 +5°C° 0 mm 1 mps 619 mmHg 96%
    03:00 +4°C° 0 mm 1 mps 619 mmHg 96%
    04:00 +4°C° 0 mm 1 mps 619 mmHg 96%
    05:00 +5°C° 0 mm 1 mps 619 mmHg 95%
    06:00 +5°C° 0 mm 1 mps 619 mmHg 94%
    07:00 +5°C° 0 mm 1 mps 619 mmHg 93%
    08:00 +7°C° 0 mm 1 mps 620 mmHg 84%
    09:00 +10°C° 0 mm 1 mps 621 mmHg 75%
    10:00 +12°C° 0 mm 1 mps 622 mmHg 67%
    11:00 +12°C° 0 mm 1 mps 622 mmHg 63%
    12:00 +13°C° 0 mm 1 mps 622 mmHg 59%
    13:00 +14°C° 0 mm 1 mps 622 mmHg 56%
    14:00 +13°C° 0 mm 2 mps 622 mmHg 61%
    15:00 +12°C° 0 mm 2 mps 621 mmHg 66%
    16:00 +10°C° 0 mm 2 mps 621 mmHg 71%
    17:00 +9°C° 0 mm 2 mps 621 mmHg 79%
    18:00 +8°C° 0 mm 2 mps 621 mmHg 86%
    19:00 +8°C° 0 mm 1 mps 621 mmHg 94%
    20:00 +7°C° 0.1 mm 1 mps 621 mmHg 95%
    21:00 +7°C° 0.1 mm 1 mps 621 mmHg 95%
    22:00 +7°C° 0.1 mm 1 mps 621 mmHg 96%
    23:00 +6°C° 0 mm 1 mps 621 mmHg 95%
    Show more